Russellville, AR

7:58 AM CDT on May 26, 2018 (GMT -0500)
Russellville Regional

Weather History for KRUE - January, 2013

Change the Weather History Date:

Friday, January 25, 2013

  Actual Average (WUND) Record (WUND)
Temperature  
Mean Temperature 40 °F -  
Max Temperature 48 °F - - (-1)
Min Temperature 32 °F - - (-1)
Degree Days  
Heating Degree Days 25    
Moisture  
Dew Point 32 °F    
Average Humidity 82    
Maximum Humidity 93    
Minimum Humidity 64    
Precipitation  
Precipitation 0.00 in - - ()
Sea Level Pressure  
Sea Level Pressure 30.18 in    
Wind  
Wind Speed 2 mph (NW)    
Max Wind Speed 8 mph    
Max Gust Speed -    
Visibility 6 miles    
Events      
Averages and records for this station are not official NWS values.
T = Trace of Precipitation, MM = Missing Value Source: NWS Daily Summary

Daily Weather History Graph

Daily Weather History Graph

Search for Another Location

Airport or City:

Astronomy

Jan. 25, 2013 Rise Set
Actual Time 7:16 AM CST 5:33 PM CST
Civil Twilight 6:49 AM CST 6:00 PM CST
Nautical Twilight 6:18 AM CST 6:31 PM CST
Astronomical Twilight 5:48 AM CST 7:01 PM CST
Moon 4:31 PM CST (1/25) 5:55 AM CST (1/25)
Length of Visible Light 11h 11m
Length of Day
10h 17m
Waxing Gibbous, 98% of the Moon is Illuminated
Jan 25
Waxing Gibbous
Jan 26
Full
Feb 3
Last Quarter
Feb 10
New
Feb 17
First Quarter

Hourly Weather History & Observations

Time (CST) Temp. Windchill Dew Point Humidity Pressure Visibility Wind Dir Wind Speed Gust Speed Precip Events Conditions
12:53 AM 33.1 °F - 21.9 °F 64% 30.17 in 10.0 mi Calm Calm - N/A   Overcast
1:53 AM 33.1 °F - 21.9 °F 64% 30.14 in 10.0 mi Calm Calm - N/A   Overcast
2:53 AM 33.1 °F 28.7 °F 23.0 °F 66% 30.14 in 10.0 mi ENE 4.6 mph - N/A   Overcast
3:53 AM 32.0 °F 28.7 °F 26.1 °F 79% 30.14 in 7.0 mi North 3.5 mph - N/A   Overcast
4:01 AM 32.0 °F 27.5 °F 26.6 °F 80% 30.14 in 5.0 mi North 4.6 mph - N/A   Haze
4:23 AM 32.0 °F - 28.4 °F 87% 30.14 in 2.5 mi Calm Calm - N/A   Overcast
4:26 AM 32.0 °F 28.7 °F 28.4 °F 87% 30.14 in 2.0 mi NNE 3.5 mph - N/A   Overcast
4:35 AM 32.0 °F - 28.4 °F 87% 30.15 in 1.8 mi Calm Calm - N/A   Overcast
4:53 AM 32.0 °F - 30.0 °F 92% 30.15 in 1.8 mi Calm Calm - N/A   Overcast
5:18 AM 32.0 °F 28.7 °F 30.2 °F 93% 30.13 in 2.0 mi South 3.5 mph - N/A   Overcast
5:32 AM 32.0 °F 27.5 °F 30.2 °F 93% 30.12 in 2.5 mi South 4.6 mph - N/A   Overcast
5:39 AM 32.0 °F - 30.2 °F 93% 30.12 in 3.0 mi Calm Calm - N/A   Overcast
5:53 AM 32.0 °F - 30.0 °F 92% 30.14 in 3.0 mi Calm Calm - N/A   Overcast
6:25 AM 32.0 °F - 30.2 °F 93% 30.14 in 3.0 mi Calm Calm - N/A   Overcast
6:53 AM 32.0 °F - 30.0 °F 92% 30.15 in 3.0 mi Calm Calm - N/A   Overcast
7:49 AM 33.8 °F - 30.2 °F 87% 30.17 in 2.0 mi Calm Calm - N/A   Overcast
7:53 AM 33.1 °F - 30.9 °F 92% 30.18 in 2.0 mi Calm Calm - N/A   Overcast
8:04 AM 33.8 °F 30.8 °F 30.2 °F 87% 30.18 in 2.0 mi WNW 3.5 mph - N/A   Overcast
8:20 AM 33.8 °F 30.8 °F 30.2 °F 87% 30.19 in 1.8 mi NW 3.5 mph - N/A   Overcast
8:53 AM 34.0 °F - 32.0 °F 92% 30.20 in 2.0 mi Calm Calm - N/A   Overcast
9:09 AM 35.6 °F - 33.8 °F 93% 30.20 in 2.0 mi Calm Calm - N/A   Overcast
9:53 AM 35.1 °F - 33.1 °F 92% 30.22 in 2.0 mi Calm Calm - N/A   Overcast
10:34 AM 37.4 °F 34.9 °F 33.8 °F 87% 30.22 in 3.0 mi West 3.5 mph - N/A   Overcast
10:53 AM 37.9 °F - 35.1 °F 89% 30.22 in 5.0 mi Calm Calm - N/A   Overcast
11:45 AM 41.0 °F 38.0 °F 35.6 °F 81% 30.21 in 7.0 mi NW 4.6 mph - N/A   Overcast
11:53 AM 41.0 °F 39.0 °F 35.1 °F 79% 30.21 in 7.0 mi North 3.5 mph - N/A   Overcast
12:39 PM 44.6 °F 41.4 °F 35.6 °F 71% 30.18 in 10.0 mi WNW 5.8 mph - N/A   Mostly Cloudy
12:50 PM 44.6 °F 42.2 °F 35.6 °F 71% 30.18 in 10.0 mi NW 4.6 mph - N/A   Partly Cloudy
12:53 PM 44.1 °F 40.1 °F 35.1 °F 71% 30.18 in 10.0 mi WNW 6.9 mph - N/A   Partly Cloudy
1:53 PM 46.9 °F - 37.0 °F 68% 30.17 in 10.0 mi NW 8.1 mph - N/A   Clear
2:53 PM 48.9 °F - 37.0 °F 64% 30.16 in 10.0 mi NW 8.1 mph - N/A   Clear
3:53 PM 48.9 °F - 37.0 °F 64% 30.17 in 10.0 mi NNW 8.1 mph - N/A   Clear
4:53 PM 46.9 °F - 37.0 °F 68% 30.18 in 9.0 mi WNW 8.1 mph - N/A   Clear
5:53 PM 45.0 °F 40.6 °F 37.0 °F 74% 30.20 in 10.0 mi NNW 8.1 mph - N/A   Clear
6:53 PM 44.1 °F 41.5 °F 37.0 °F 76% 30.21 in 9.0 mi NW 4.6 mph - N/A   Clear
7:53 PM 43.0 °F 40.3 °F 37.0 °F 80% 30.22 in 8.0 mi North 4.6 mph - N/A   Clear
8:53 PM 41.0 °F 39.0 °F 37.0 °F 86% 30.23 in 7.0 mi NW 3.5 mph - N/A   Clear
9:53 PM 42.1 °F 40.2 °F 37.9 °F 85% 30.24 in 6.0 mi NNW 3.5 mph - N/A   Clear
10:53 PM 42.1 °F - 37.0 °F 82% 30.25 in 6.0 mi Calm Calm - N/A   Haze
11:53 PM 42.1 °F 40.2 °F 37.0 °F 82% 30.25 in 5.0 mi North 3.5 mph - N/A   Haze